Location: Winnipeg
(49.8830°N, 97.1670°W)
Time: 21:03:52
(UTC-06:00)

Envisat - Pass Details

Date: 01 December 2022
Orbit: 763 x 765 km, 98.2° (Epoch: 08 February)

Event Time Altitude Azimuth Distance (km) Brightness Sun altitude
Rises 06:12:54 0° 5° (N) 3,247 6.2 -17.3°
Reaches altitude 10° 06:15:36 10° 352° (N) 2,316 5.3 -16.9°
Enters shadow 06:18:46 23° 314° (NW) 1,615 4.2 -16.4°
